This demonstration page uses our WeatherBlox Daily Observations layout. Learn more.

Left ArrowRight Arrow

Hourly Observations for August 25, 2020

Temp ( °F °C ) Dew Point ( °F °C ) Humidity (%) Winds ( mph kmh ) Pressure ( in mb ) Visibility ( mi km ) Precip ( " mm )
12:53 am 00:53 Partly Cloudy 75 23.9 70 21.1 84 84 N N/A 30.06 1018 10 16.0934 N/A
1:53 am 01:53 Clear 73 22.8 70 21.1 90 90 N N/A 30.06 1018 9 14.48406 N/A
2:53 am 02:53 Clear 71 21.7 69 20.6 94 94 N N/A 30.05 1018 7 11.26538 N/A
3:53 am 03:53 Mostly Clear 72 22.2 70 21.1 94 94 W 3 6 30.05 1018 8 12.87472 N/A
4:53 am 04:53 Clear 71 21.7 69 20.6 94 94 N N/A 30.04 1017 8 12.87472 N/A
5:53 am 05:53 Partly Cloudy with Mist and Fog 70 21.1 68 20 93 93 N N/A 30.04 1017 5 8.0467 N/A
6:53 am 06:53 Clear 71 21.7 69 20.6 94 94 W 5 7 30.06 1018 7 11.26538 N/A
7:53 am 07:53 Sunny with Mist and Fog 73 22.8 70 21.1 90 90 W 3 6 30.08 1019 6 9.65604 N/A
8:53 am 08:53 Sunny 77 25 71 21.7 82 82 WSW 6 9 30.08 1019 8 12.87472 N/A
9:53 am 09:53 Sunny 80 26.7 72 22.2 76 76 W 7 11 30.09 1019 10 16.0934 N/A
10:53 am 10:53 Sunny 84 28.9 73 22.8 70 70 W 7 11 30.08 1019 10 16.0934 N/A
11:53 am 11:53 Sunny 88 31.1 73 22.8 61 61 VRB 3 6 30.06 1018 10 16.0934 N/A
12:53 pm 12:53 Mostly Sunny 90 32.2 73 22.8 58 58 W 7 11 30.05 1018 10 16.0934 N/A
1:53 pm 13:53 Sunny 92 33.3 72 22.2 52 52 WNW 15 24 30.04 1017 10 16.0934 N/A
2:53 pm 14:53 Mostly Cloudy 93 33.9 72 22.2 50 50 W 9 15 30.03 1017 10 16.0934 N/A
3:53 pm 15:53 Partly Cloudy 91 32.8 71 21.7 52 52 W 9 15 30.01 1016 10 16.0934 N/A
4:37 pm 16:37 Partly Cloudy with Nearby Thunderstorms 92 33.3 73 22.8 54 54 WSW 8 13 29.97 1015 10 16.0934 N/A
4:53 pm 16:53 Mostly Cloudy with Thunderstorms 91 32.8 72 22.2 54 54 NW 9 15 30.01 1016 10 16.0934 N/A
5:05 pm 17:05 Mostly Cloudy with Heavy Thunderstorms 79 26.1 73 22.8 82 82 NNW 12 19 30.02 1017 1.5 2.41401 0.14 3.556
5:17 pm 17:17 Cloudy with Light Thunderstorms 78 25.6 74 23.3 87 87 VRB 3 6 30 1016 4 6.43736 0.17 4.318
5:30 pm 17:30 Mostly Cloudy with Nearby Thunderstorms 78 25.6 75 23.9 90 90 WNW 6 9 30 1016 10 16.0934 0.17 4.318
5:38 pm 17:38 Mostly Sunny 79 26.1 75 23.9 88 88 N N/A 30 1016 10 16.0934 0.17 4.318
5:46 pm 17:46 Sunny with Nearby Thunderstorms 78 25.6 76 24.4 93 93 N N/A 30.01 1016 6 9.65604 0.17 4.318
5:53 pm 17:53 Sunny with Nearby Thunderstorms 77 25 75 23.9 94 94 N N/A 30.02 1017 5 8.0467 0.17 4.318
6:01 pm 18:01 Sunny 77 25 76 24.4 96 96 N N/A 30.01 1016 7 11.26538 N/A
6:53 pm 18:53 Sunny 76 24.4 72 22.2 88 88 W 5 7 30.02 1017 10 16.0934 N/A
7:53 pm 19:53 Sunny 75 23.9 72 22.2 90 90 N N/A 30.03 1017 9 14.48406 N/A
8:53 pm 20:53 Mostly Clear with Mist and Fog 71 21.7 70 21.1 96 96 N N/A 30.05 1018 6 9.65604 N/A
9:53 pm 21:53 Partly Cloudy 71 21.7 70 21.1 96 96 N N/A 30.07 1018 7 11.26538 N/A
10:53 pm 22:53 Mostly Cloudy with Mist and Fog 71 21.7 70 21.1 96 96 N N/A 30.07 1018 4 6.43736 N/A
11:53 pm 23:53 Mostly Cloudy with Mist and Fog 71 21.7 70 21.1 96 96 N N/A 30.07 1018 5 8.0467 N/A

Powered by AerisWeather